Location: Devore Heights
(34.2372°N, 117.4156°W)
Time: 23:06:24
(UTC+00:00)

Transit 4A - Pass Details

Date: 22 September 2024
Orbit: 864 x 978 km, 66.8° (Epoch: 13 October)

Event Time Altitude Azimuth Distance (km) Brightness Sun altitude
Rises 07:21:13 0° 164° (SSE) 3,432 - -55.3°
Reaches altitude 10° 07:24:24 10° 146° (SSE) 2,507 - -55.4°
Maximum altitude 07:28:15 19° 104° (ESE) 1,987 - -55.5°
Drops below altitude 10° 07:32:09 10° 62° (ENE) 2,551 - -55.6°
Sets 07:35:25 0° 45° (NE) 3,515 - -55.6°
